Location: ??????????
(44.2167°N, 135.5333°E)
Time: 14:51:18
(UTC+00:00)

SL-4 R/B - Pass Details

Date: 15 June 2025
Orbit: 393 x 546 km, 51.6° (Epoch: 16 July)

Event Time Altitude Azimuth Distance (km) Brightness Sun altitude
Rises 17:17:02 0° 298° (WNW) 2,658 5.5 -15.4°
Reaches altitude 10° 17:19:27 10° 308° (NW) 1,745 4.6 -15.1°
Maximum altitude 17:23:06 34° 15° (NNE) 836 3.6 -14.8°
Drops below altitude 10° 17:26:34 10° 82° (E) 1,659 5.1 -14.4°
Sets 17:28:48 0° 92° (E) 2,506 5.9 -14.2°
